Other Public Products
Issued by NWS Charleston, SC

Current Version | Previous Version | Graphics & Text | Print | Product List | Glossary On
Versions: 1 2 3 4 5 6 7 8 9 10 11 12 13 14 15 16 17 18 19 20 21 22 23 24 25 26 27 28 29 30 31 32 33 34 35 36 37 38 39 40 41 42 43 44 45 46 47 48 49 50
000 FPUS82 KCHS 181512 OPUCHS TEST...KCHS/KSAV Gateway Observations...TEST National Weather Service Charleston SC 1000 AM EST SUN FEB 18 2018 NOTE: "fair" indicates few or no clouds below 12,000 feet with no significant weather and/or obstructions to visibility. SCZ050-WAZ558-NCZ071-TXZ119-213-PAZ071-DCZ001-FLZ074-172-MI076- NYZ176-178-MAZ016-IL014-TNZ027-NJZ106-GAZ044-MD014-181600- ...Gateway Observations for Charleston International... CITY SKY/WX TMP DP RH WIND PRES REMARKS Chas Airport PTSUNNY 68 57 68 N12 30.25R Seattle CLOUDY 34 29 82 SE9 29.63F WCI 27 Charlotte FAIR 51 43 74 NE12 30.32R Dallas DFW DRZL/FOG 49 48 97 SE9 30.13S VSB 1/2 Dallas Love FOG 49 48 97 SE8 30.14S VSB 3/4 Philladelphia FAIR 39 28 64 NW9 30.34R WCI 33 Wash National CLOUDY 40 36 86 SW5 30.39R WCI 37 Baltimore PTSUNNY 35 35 100 CALM 30.37R FOG Miami FAIR 80 69 69 E10 30.23S Detroit FAIR 34 23 64 SW5 30.34R WCI 30 Newark FAIR 39 23 52 NW10G22 30.26R WCI 32 Laguardia FAIR 39 24 55 NW14G21 30.26R WCI 31 J F K FAIR 38 24 57 NW17G28 30.26R WCI 28 Boston Logan FAIR 36 28 73 NW20G26 30.14R WCI 25 Ft. Lauderdale PTSUNNY 75 69 81 E5 30.23R Chicago O`Hare PTSUNNY 23 20 88 S7 30.24R FOG WCI 15 Chicago Midway PTSUNNY 26 23 88 S10 30.26R WCI 16 Houston Bush CLOUDY 62 60 93 E8 30.14R FOG Houston Hobby FOG 62 62 100 E6 30.14R VSB 1 Nashville FAIR 43 35 73 E7 30.35R Atlanta FAIR 54 46 74 N9 30.26R $$ GAZ044-118-TXZ119-213-NCZ071-DCZ001-MDZ014-506-PAZ021-071-NJZ106- NYZ176-178-MAZ106-OHZ011-021-055-MIZ076-KYZ091-ILZ014-INZ047- MNZ060-ONZ431-181600- ...Gateway Observations for Savannah International... CITY SKY/WX TMP DP RH WIND PRES REMARKS Savannah Arpt CLOUDY 66 63 90 NW8 30.25R Atlanta FAIR 54 46 74 N9 30.26R Charlotte FAIR 51 43 74 NE12 30.32R Dallas DFW DRZL/FOG 49 48 97 SE9 30.13S VSB 1/2 Houston Bush CLOUDY 62 60 93 E8 30.14R FOG Wash National CLOUDY 40 36 86 SW5 30.39R WCI 37 Wash Dulles PTSUNNY 37 35 92 CALM 30.38R Baltimore PTSUNNY 35 35 100 CALM 30.37R FOG Philadelphia FAIR 39 28 64 NW9 30.34R WCI 33 Newark FAIR 39 23 52 NW10G22 30.26R WCI 32 Laguardia FAIR 39 24 55 NW14G21 30.26R WCI 31 J F K FAIR 38 24 57 NW17G28 30.26R WCI 28 Boston FAIR 36 28 73 NW20G26 30.14R WCI 25 Pittsburg CLOUDY 34 30 85 CALM 30.33R Akron PTSUNNY 35 24 64 W8 30.34R WCI 29 Cleveland CLOUDY 34 28 79 SW6 30.38R WCI 29 Cincinnati PTSUNNY 35 30 82 SE8 30.36S WCI 29 Columbus PTSUNNY 35 27 70 CALM 30.37R Detroit FAIR 34 23 64 SW5 30.34R WCI 30 Chicago O`Hare PTSUNNY 23 20 88 S7 30.24R FOG WCI 15 Minneapolis CLOUDY 24 14 65 SE22 29.85F WCI 9 Indianapolis CLOUDY 31 27 85 SE15 30.34F WCI 20 Toronto Canada PTSUNNY 34 25 69 W13G18 30.27R WCI 25 $$

USA.gov is the U.S. government's official web portal to all federal, state and local government web resources and services.